Date,TemperatureHighF,TemperatureAvgF,TemperatureLowF,DewpointHighF,DewpointAvgF,DewpointLowF,HumidityHigh,HumidityAvg,HumidityLow,PressureMaxIn,PressureMinIn,WindSpeedMaxMPH,WindSpeedAvgMPH,GustSpeedMaxMPH,PrecipitationSumIn
2013-3-1,-200,0,200,-100,-100,-100,0,0,100,29.95,29.45,0,-999,0,0.00
2013-3-2,-200,0,200,-100,-100,-100,0,0,100,30.11,29.96,0,-999,0,0.00
2013-3-3,22,2,20,16,-88,-100,82,8,78,30.37,30.11,0,-895,0,0.00
2013-3-4,28,2,26,18,-90,-100,69,6,66,30.47,30.24,0,-915,0,0.00
2013-3-5,30,5,26,18,-78,-100,66,12,57,30.25,29.89,0,-808,0,0.00
2013-3-6,16,2,13,8,-88,-100,73,8,69,29.96,29.82,0,-893,0,0.00
2013-3-7,-200,0,200,-100,-100,-100,0,0,100,29.84,29.38,0,-999,0,0.00
2013-3-8,40,4,37,26,-85,-100,65,7,58,29.59,29.44,0,-882,0,0.04
2013-3-9,34,6,30,25,-78,-100,75,13,70,29.97,29.60,0,-822,0,0.01
2013-3-10,24,5,20,19,-72,-100,92,19,74,30.26,29.98,0,-760,0,0.00
2013-3-11,21,5,18,15,-73,-100,83,18,73,30.57,30.27,0,-758,0,0.00
2013-3-12,21,4,17,5,-77,-100,56,12,50,30.61,30.31,0,-779,0,0.00
2013-3-13,13,2,3,-5,-81,-100,52,9,42,30.34,30.19,0,-795,0,0.00
2013-3-14,15,3,10,-3,-76,-100,46,11,41,30.27,30.10,0,-749,0,0.00
2013-3-15,22,5,15,-3,-76,-100,40,9,32,30.19,29.91,0,-752,0,0.00
2013-3-16,22,3,20,3,-85,-100,45,7,43,30.14,29.95,0,-850,0,0.00
2013-3-17,13,3,10,1,-77,-100,61,14,58,30.32,30.10,0,-766,0,0.00
2013-3-18,16,4,10,2,-74,-100,61,14,55,30.17,29.97,0,-746,0,0.00
2013-3-19,15,3,10,0,-78,-100,57,12,46,30.15,29.99,0,-771,0,0.00
2013-3-20,8,2,2,-2,-74,-100,71,18,62,30.07,29.88,0,-733,0,0.00
2013-3-21,18,2,16,9,-84,-100,70,10,67,30.11,29.93,0,-850,0,0.00
2013-3-22,29,3,26,14,-89,-100,60,5,54,30.00,29.64,0,-903,0,0.00
2013-3-23,4,1,0,-9,-73,-100,63,17,53,30.11,29.66,0,-700,0,0.00
2013-3-24,10,2,6,3,-80,-100,83,14,56,30.08,29.71,0,-795,0,0.00
2013-3-25,8,2,4,3,-78,-100,81,17,73,29.77,29.57,0,-780,0,0.00
2013-3-26,3,0,-1,-8,-72,-100,65,19,55,30.20,29.72,0,-688,0,0.00
2013-3-27,8,2,4,-5,-78,-100,60,13,54,30.30,30.07,0,-768,0,0.00
2013-3-28,29,8,22,13,-68,-100,55,14,42,30.16,29.85,0,-709,0,0.05
2013-3-29,41,12,35,21,-64,-100,52,14,41,29.91,29.82,0,-698,0,0.22
2013-3-30,36,9,26,20,-66,-100,57,15,49,30.17,29.87,0,-714,0,0.05
2013-3-31,37,10,34,28,-66,-100,72,18,67,30.25,30.11,0,-736,0,0.09